Powrót do katalogu

COSMOS 397 DEB

AktywnyLEO
NORAD 5014·DEBRIS·🇷🇺 Russia

Wystrzelony Feb 25, 1971 z Baikonur Cosmodrome

Loading…

Następne Przeloty

TLE

Source: Space-Track
1 05014U 71015H   26228.28320328  .00000924  00000-0  24365-3 0  9990
2 05014  65.5774 167.4344 0569316 233.0819 121.6802 13.86418341684840

Śledź COSMOS 397 DEB w czasie rzeczywistym z AllMySat

Download on the App Store